This is the latest recevied weather packets stored in our database for station/object DK5GB. If no packets are shown the sender has not sent any weather packets the latest 10 day(s).
| Time | Temp. | Humidity | Pressure | Rain* | Wind** | Luminosity | Snow |
|---|---|---|---|---|---|---|---|
| 1777646116 | 23.33° C | 27% | 1027.6 hPa | 0 mm | - | - | - |
| 1777640136 | 22.22° C | 29% | 1028.9 hPa | 0 mm | - | - | - |
| 1777639536 | 22.22° C | 26% | 1029 hPa | 0 mm | - | - | - |
| 1777629317 | 18.33° C | 28% | 1030.6 hPa | 0 mm | - | - | - |
| 1777623337 | 16.67° C | 31% | 1030.9 hPa | 0 mm | - | - | - |
| 1777620938 | 15° C | 34% | 1030.9 hPa | 0 mm | - | - | - |
| 1777620317 | 14.44° C | 34% | 1030.8 hPa | 0 mm | - | - | - |
| 1777617917 | 12.78° C | 44% | 1030.8 hPa | 0 mm | - | - | - |
| 1777617317 | 11.67° C | 48% | 1030.8 hPa | 0 mm | - | - | - |
| 1777616138 | 9.44° C | 63% | 1030.8 hPa | 0 mm | - | - | - |
| 1777611917 | 1.67° C | 80% | 1029.8 hPa | 0 mm | - | - | - |
| 1777611318 | 1.11° C | 79% | 1029.8 hPa | 0 mm | - | - | - |
| 1777610138 | 1.67° C | 79% | 1029.7 hPa | 0 mm | - | - | - |
| 1777609517 | 1.67° C | 79% | 1029.6 hPa | 0 mm | - | - | - |
| 1777605937 | 1.67° C | 77% | 1029.5 hPa | 0 mm | - | - | - |
| 1777602917 | 2.22° C | 77% | 1029.5 hPa | 0 mm | - | - | - |
| 1777602318 | 2.78° C | 76% | 1029.5 hPa | 0 mm | - | - | - |
| 1777600517 | 2.78° C | 74% | 1029.6 hPa | 0 mm | - | - | - |
| 1777597537 | 3.33° C | 73% | 1029.9 hPa | 0 mm | - | - | - |
| 1777595716 | 3.89° C | 71% | 1029.8 hPa | 0 mm | - | - | - |
| 1777594516 | 4.44° C | 68% | 1029.9 hPa | 0 mm | - | - | - |
| 1777582517 | 10° C | 48% | 1029.5 hPa | 0 mm | - | - | - |
| 1777573516 | 14.44° C | 30% | 1028.6 hPa | 0 mm | - | - | - |
| 1777572916 | 15° C | 29% | 1028.5 hPa | 0 mm | - | - | - |
| 1777567517 | 16.67° C | 25% | 1028.1 hPa | 0 mm | - | - | - |
* Rain latest hour (hover to see other rain measurements)
** Current wind speed in m/s (hover to see current wind gust speed)